{"data":{"norad_id":36411,"intl_designator":"2010-008A","name":"EWS-G2 (GOES 15)","alt_names":[],"object_type":"PAYLOAD","status":"ACTIVE","operator":null,"country":"US","launch_date":"2010-03-04","launch_site_code":"AFETR","launch_vehicle":null,"mission":null,"orbit_class":"UNKNOWN","rcs_meters":6.3096,"size_class":null,"mass_kg":null,"dimensions":null,"purposes":["comms","earth_obs"],"wikipedia_slug":null,"has_3d_model":false,"image_url":null,"decayed_at":null,"tle_current":{"epoch":"2026-05-25T04:02:38.036256Z","epoch_age_seconds":63753,"freshness":"FRESH","line1":"1 36411U 10008A   26145.16849579  .00000019  00000+0  00000+0 0  9999","line2":"2 36411   1.2175  83.2466 0005001  32.1296 251.4627  1.00274787 59402","mean_motion":1.00274787,"eccentricity":0.0005001,"inclination_deg":1.2175,"raan_deg":83.2466,"arg_perigee_deg":32.1296,"mean_anomaly_deg":251.4627,"bstar":0,"rev_number":5940,"period_min":1436.0539105408,"perigee_km":35764.667251015,"apogee_km":35806.839574206,"semimajor_km":42163.890412611,"source":"CELESTRAK","updated_at":"2026-05-25T13:38:13.870543Z"}}}